[[{"header":{"parameterUnit":"m.s-1","parameterCategory":1,"la1":30.2991,"la2":30.254,"lo1":-89.0895,"lo2":-89.0444,"dy":0.0017,"dx":0.0017,"nx":28,"ny":28,"refTime":"2025-01-31T09:00:00:Z","depth":0,"parameterNumber":2,"parameterNumberName":"U-component_of_WINDS"},"data":[0,0,0,0,0,0,0,0,0,0,0,0,0,0,0,0,0,0,0,0,0,0,0,0,0,0,0,0,0,0,0,0,0,0,0,0,0,0,0,0,0,0,0,0,0,0,0,0,0,0,0,0,0,0,0,0,0,0,6.944,6.9441,0,6.9571,6.9572,6.9574,6.9479,6.9474,6.947,6.9466,6.9594,6.9601,6.9608,0,0,0,0,0,0,0,0,0,0,0,0,0,6.9102,6.9109,6.944,6.9441,6.9443,6.957,6.9572,6.9574,6.9479,6.9474,6.9469,6.9464,6.9591,6.96,6.9609,0,0,0,0,0,0,0,0,0,0,0,0,0,6.9242,6.9111,6.9439,6.9411,6.941,6.957,6.9572,6.9574,6.948,6.9474,6.9468,6.9462,6.9589,6.9599,6.961,6.9803,0,0,6.9643,6.9648,0,0,0,0,0,0,0,0,6.9234,6.9255,6.9414,6.9414,6.9413,6.9502,6.95,6.9651,6.9482,6.9454,6.9466,6.9459,6.9568,6.958,6.9618,6.9809,6.9814,6.9644,6.9651,6.9656,6.9659,0,0,0,0,0,0,0,6.9225,6.9249,6.9491,6.9416,6.9416,6.939,6.9403,6.9528,6.9544,6.9456,6.9449,6.9466,6.9566,6.9608,6.962,6.9816,6.9644,6.9654,6.966,6.9665,7.0172,7.0179,0,0,0,0,0,0,6.9219,6.9241,6.9487,6.9495,6.9307,6.9401,6.9416,6.948,6.9542,6.9546,6.9471,6.9461,6.9592,6.9608,6.9625,6.9856,6.9655,6.9666,6.9672,7.0165,7.0173,7.0181,0,0,0,0,0,0,6.9212,6.9242,6.9482,6.9367,6.9395,6.9414,6.9486,6.9485,6.9527,6.9554,6.9556,6.9512,6.9588,6.9609,6.976,6.9859,6.9671,6.9681,7.0157,7.0168,7.0177,7.032,0,0,0,0,0,0,6.9203,6.924,6.9315,6.9369,6.9402,6.9617,6.9492,6.9492,6.9547,6.9535,6.9593,6.9596,6.9585,6.9744,6.9771,6.9871,6.9689,7.0148,7.0162,7.0174,7.0306,7.0334,7.0357,0,0,0,0,0,6.9191,6.9348,6.9319,6.9349,6.9496,6.9623,6.9642,6.9628,6.9555,6.963,6.9648,6.9594,6.9843,6.976,6.9789,6.9894,7.0142,7.0158,7.0173,7.0295,7.0329,7.0357,0,0,0,0,0,0,6.9301,6.9354,6.9323,6.9502,6.956,6.9607,6.9701,6.9663,6.974,6.9725,6.9702,6.9716,6.9875,6.9898,6.9805,7.0085,6.9981,7.0003,7.0064,7.0096,7.0121,7.0112,6.9698,0,0,0,0,0,6.9347,6.9448,6.9488,6.9642,6.9673,6.9682,6.9737,6.9721,6.9778,6.9801,6.983,6.9886,6.9976,7.0037,7.0122,7.0308,7.032,7.0395,7.042,7.0441,7.0461,7.0563,7.0597,7.0232,7.0232,7.0232,0,0,6.9442,6.9483,6.9548,6.9666,6.9708,6.9812,6.9703,6.9817,6.9893,6.9818,6.9964,6.9986,7.0046,7.0217,7.0293,7.0242,7.0564,7.0461,7.0477,7.0486,7.0583,7.0617,7.0648,7.0243,7.0241,7.0239,0,0,6.9669,6.9709,6.9844,6.989,6.9956,6.9961,6.9994,7.0048,7.0061,7.0207,7.0153,7.0242,7.0399,7.0445,7.0489,7.0734,7.0688,7.0761,7.0895,7.0995,7.1024,7.1049,7.1138,7.117,7.0781,7.0781,7.0781,0,6.9778,6.9934,6.9917,7.0037,7.009,7.0029,7.0165,7.0208,7.0298,7.0336,7.0277,7.0474,7.051,7.0691,7.0751,7.0788,7.0824,7.0756,7.1021,7.1047,7.107,7.1155,7.1188,7.079,7.0789,7.0788,7.0787,0,7.0066,7.0175,7.0275,7.0368,7.0432,7.0559,7.0559,7.0626,7.0604,7.0616,7.0765,7.0806,7.0899,7.094,7.0919,7.1119,7.1085,7.1025,7.092,7.1114,7.1193,7.1226,7.0802,7.0799,7.0797,7.0794,0,0,7.0367,7.045,7.0487,7.0529,7.0598,7.0681,7.0804,7.0898,7.0956,7.1019,7.1123,7.1257,7.1202,7.1252,7.1235,7.1322,7.1516,7.125,7.1251,7.13,7.174,7.1788,7.1825,7.1485,7.1491,7.1496,7.1736,0,7.06,7.0819,7.0807,7.1011,7.1113,7.1055,7.1163,7.1216,7.1229,7.1315,7.1328,7.1425,7.1344,7.1374,7.1457,7.1475,7.1604,7.1457,7.158,7.1585,7.157,7.1867,7.1917,7.2142,7.1766,7.1772,7.1775,0,7.0901,7.0979,7.1194,7.125,7.1292,7.1389,7.1475,7.1558,7.1616,7.1619,7.1676,7.1645,7.1768,7.1659,7.1828,7.1729,7.1777,7.1793,7.1802,7.1815,7.1694,7.189,7.2213,7.2248,7.1824,7.182,7.1816,0,7.1103,7.126,7.141,7.1447,7.1515,7.1585,7.1616,7.1669,7.1726,7.1799,7.1837,7.1922,7.197,7.2036,7.2028,7.1949,7.2201,7.209,7.2207,7.2207,7.2264,7.2261,7.2603,7.2292,7.2292,7.2291,7.229,0,7.1365,7.15,7.1503,7.1595,7.1744,7.1728,7.1875,7.1897,7.1945,7.204,7.1993,7.2082,7.2065,7.2154,7.2148,7.229,7.231,7.2316,7.2313,7.2322,7.2322,7.2356,7.2341,7.23,7.2298,7.2296,7.2295,0,7.1617,7.1624,7.1784,7.1836,7.1852,7.196,7.2003,7.209,7.2099,7.2219,7.2246,7.2261,7.2363,7.2361,7.2475,7.2471,7.2646,7.2624,7.2628,7.2625,7.2742,7.2732,7.3119,7.3169,7.2824,7.2827,7.283,0,7.1785,7.1889,7.1952,7.2014,7.2051,7.215,7.2209,7.2196,7.2259,7.2334,7.2412,7.251,7.2588,7.2753,7.2772,7.286,7.2841,7.297,7.2854,7.286,7.2846,7.2841,7.2852,7.2994,7.2998,7.3001,7.3004,0,7.2085,7.2084,7.2173,7.2264,7.2337,7.2407,7.2471,7.2523,7.2517,7.259,7.2696,7.2757,7.2875,7.2973,7.3058,7.3086,7.3045,7.304,7.3072,7.3083,7.3083,7.3087,7.2693,7.3032,7.3029,7.3027,7.3025,7.3024,7.2302,7.2392,7.2452,7.2553,7.26,7.2662,7.2747,7.2768,7.2856,7.2955,7.294,7.3058,7.3112,7.3222,7.3259,7.3349,7.3303,7.3349,7.3361,7.3373,7.3388,7.3066,7.3364,7.3363,7.3362,7.3362,7.3361,0,7.2602,7.2638,7.2731,7.2824,7.2903,7.2858,7.2927,7.2996,7.3101,7.3157,7.3236,7.3357,7.3452,7.3478,7.3569,7.3637,7.362,7.3661,7.3657,7.3665,7.3422,7.3387,7.3674,7.3674,7.3673,7.3673,7.3673,7.3673,7.2767,7.2918,7.2924,7.3096,7.313,7.3248,7.3291,7.3347,7.3392,7.3531,7.3611,7.3628,7.3672,7.3766,7.385,7.3855,7.3892,7.3942,7.394,7.3713,7.3682,7.3652,7.3619,7.3949,7.395,7.4175,7.4177,7.4178]},{"header":{"parameterUnit":"m.s-1","parameterCategory":1,"la1":30.2991,"la2":30.254,"lo1":-89.0895,"lo2":-89.0444,"dy":0.0017,"dx":0.0017,"nx":28,"ny":28,"refTime":"2025-01-31T09:00:00:Z","depth":0,"parameterNumber":3,"parameterNumberName":"V-component_of_WINDS"},"data":[0,0,0,0,0,0,0,0,0,0,0,0,0,0,0,0,0,0,0,0,0,0,0,0,0,0,0,0,0,0,0,0,0,0,0,0,0,0,0,0,0,0,0,0,0,0,0,0,0,0,0,0,0,0,0,0,0,0,-2.2696,-2.2685,0,-2.1688,-2.1676,-2.1665,-2.1259,-2.1262,-2.1264,-2.1267,-2.0193,-2.0163,-2.0132,0,0,0,0,0,0,0,0,0,0,0,0,0,-2.423,-2.4205,-2.2697,-2.2684,-2.2672,-2.169,-2.1676,-2.1662,-2.1259,-2.1262,-2.1265,-2.1268,-2.0203,-2.0166,-2.0129,0,0,0,0,0,0,0,0,0,0,0,0,0,-2.3427,-2.4196,-2.2699,-2.2353,-2.2312,-2.1693,-2.1675,-2.1658,-2.1258,-2.1262,-2.1266,-2.1269,-2.0215,-2.017,-2.0124,-1.9761,0,0,-1.9982,-1.9962,0,0,0,0,0,0,0,0,-2.3473,-2.3371,-2.2416,-2.2376,-2.2329,-2.1604,-2.1822,-2.102,-2.1257,-2.1657,-2.1267,-2.1271,-2.0656,-2.0574,-2.0375,-1.9711,-1.9664,-1.9978,-1.995,-1.993,-1.9917,0,0,0,0,0,0,0,-2.3529,-2.3412,-2.2296,-2.2403,-2.2349,-2.2234,-2.2124,-2.1668,-2.1146,-2.1622,-2.1591,-2.1479,-2.0633,-2.0421,-2.0347,-1.9649,-1.9979,-1.9938,-1.9909,-1.9891,-1.8625,-1.862,0,0,0,0,0,0,-2.3648,-2.3461,-2.2328,-2.2266,-2.2924,-2.2204,-2.2081,-2.1832,-2.115,-2.1051,-2.1477,-2.1464,-2.0498,-2.0401,-2.0307,-1.9831,-1.993,-1.9887,-1.986,-1.8631,-1.8624,-1.8618,0,0,0,0,0,0,-2.3683,-2.3551,-2.2369,-2.2854,-2.2696,-2.2174,-2.1897,-2.181,-2.1598,-2.1041,-2.0942,-2.136,-2.0497,-2.0373,-1.9901,-1.9789,-1.9866,-1.9823,-1.8638,-1.8629,-1.8621,-1.8883,0,0,0,0,0,0,-2.3728,-2.3566,-2.3433,-2.2855,-2.2672,-2.1993,-2.1891,-2.1788,-2.1524,-2.1498,-2.0904,-2.0809,-2.0491,-1.9972,-1.9855,-1.9726,-1.9787,-1.8645,-1.8634,-1.8624,-1.8882,-1.8885,-1.8887,0,0,0,0,0,-2.3785,-2.3539,-2.3429,-2.3294,-2.2497,-2.1988,-2.1881,-2.1532,-2.1518,-2.1372,-2.1013,-2.0828,-1.9823,-1.9928,-1.9791,-1.9648,-1.865,-1.8637,-1.8624,-1.8881,-1.8884,-1.8887,0,0,0,0,0,0,-2.4103,-2.3457,-2.3327,-2.2891,-2.25,-2.1921,-2.1727,-2.1547,-2.114,-2.1131,-2.0702,-2.0571,-2.0133,-1.9841,-1.9971,-1.9256,-1.9221,-1.918,-1.9463,-1.9461,-1.9464,-1.9539,-1.9748,0,0,0,0,0,-2.4126,-2.3781,-2.3228,-2.2895,-2.2707,-2.2253,-2.2018,-2.1784,-2.1355,-2.1183,-2.0789,-2.0368,-1.9955,-1.9692,-1.9282,-1.884,-1.8697,-1.8672,-1.8675,-1.868,-1.8647,-1.8382,-1.8362,-1.8575,-1.8575,-1.8576,0,0,-2.4161,-2.3766,-2.3572,-2.295,-2.2619,-2.2257,-2.2115,-2.1739,-2.1461,-2.112,-2.0654,-2.035,-1.985,-1.9391,-1.9168,-1.9134,-1.8558,-1.8663,-1.8672,-1.8634,-1.8367,-1.8348,-1.833,-1.8566,-1.8568,-1.8569,0,0,-2.4043,-2.3715,-2.34,-2.3073,-2.2579,-2.2278,-2.2204,-2.1651,-2.144,-2.0969,-2.0704,-2.036,-1.9663,-1.9316,-1.9049,-1.88,-1.861,-1.8677,-1.8687,-1.8434,-1.8417,-1.84,-1.8303,-1.8275,-1.8648,-1.8648,-1.8648,0,-2.4147,-2.3607,-2.3256,-2.2896,-2.2624,-2.2314,-2.1983,-2.1678,-2.1069,-2.0883,-2.0858,-1.9975,-1.9616,-1.9068,-1.9009,-1.8804,-1.8694,-1.874,-1.8451,-1.843,-1.8408,-1.8311,-1.8277,-1.8659,-1.8658,-1.8657,-1.8656,0,-2.3755,-2.3383,-2.3185,-2.2621,-2.2326,-2.1983,-2.1567,-2.1309,-2.1101,-2.0799,-2.0315,-1.9876,-1.9371,-1.9223,-1.901,-1.8641,-1.8635,-1.8538,-1.8491,-1.8405,-1.8306,-1.8266,-1.8675,-1.8671,-1.8668,-1.8665,0,0,-2.3805,-2.3057,-2.2988,-2.2726,-2.2158,-2.1855,-2.1492,-2.1011,-2.0794,-2.0383,-2.0059,-1.9477,-1.9382,-1.9079,-1.8823,-1.8604,-1.8425,-1.8527,-1.8509,-1.8519,-1.798,-1.8055,-1.8019,-1.83,-1.8291,-1.8284,-1.802,0,-2.3607,-2.296,-2.2633,-2.2119,-2.1764,-2.1463,-2.1144,-2.0753,-2.0461,-2.0105,-1.9775,-1.9368,-1.9278,-1.9092,-1.8861,-1.8498,-1.831,-1.8512,-1.7979,-1.7965,-1.8111,-1.7968,-1.8045,-1.7818,-1.798,-1.7973,-1.7968,0,-2.3288,-2.2895,-2.2352,-2.1823,-2.166,-2.1383,-2.0912,-2.0582,-2.0127,-1.9927,-1.9593,-1.9344,-1.8935,-1.8927,-1.835,-1.8495,-1.8256,-1.8045,-1.8026,-1.7957,-1.7958,-1.7888,-1.7737,-1.7702,-1.7905,-1.791,-1.7915,0,-2.3373,-2.2706,-2.2293,-2.2078,-2.1452,-2.1262,-2.0989,-2.054,-2.0271,-1.9854,-1.9672,-1.9211,-1.8955,-1.8597,-1.8224,-1.8254,-1.7681,-1.7642,-1.7492,-1.7502,-1.738,-1.7391,-1.7183,-1.724,-1.724,-1.7241,-1.7242,0,-2.3182,-2.2859,-2.2324,-2.2069,-2.1694,-2.1316,-2.095,-2.0651,-2.0254,-1.9925,-1.9632,-1.9327,-1.8858,-1.8489,-1.8194,-1.7757,-1.7644,-1.7462,-1.7386,-1.7485,-1.7508,-1.7318,-1.7321,-1.7231,-1.7233,-1.7235,-1.7237,0,-2.3211,-2.2842,-2.2371,-2.182,-2.1673,-2.142,-2.0939,-2.0673,-2.0369,-1.9955,-1.9835,-1.935,-1.8902,-1.8499,-1.7898,-1.7699,-1.7251,-1.7159,-1.741,-1.7367,-1.7238,-1.7254,-1.6894,-1.6824,-1.6939,-1.6938,-1.6938,0,-2.3112,-2.2858,-2.2283,-2.2049,-2.1786,-2.1411,-2.1137,-2.0751,-2.0475,-1.9938,-1.9733,-1.9267,-1.8873,-1.8167,-1.7751,-1.7289,-1.7179,-1.7085,-1.7106,-1.7212,-1.7168,-1.7186,-1.7154,-1.7087,-1.7087,-1.7088,-1.7089,0,-2.2971,-2.2801,-2.2427,-2.1985,-2.1671,-2.1301,-2.092,-2.0741,-2.028,-1.9983,-1.9529,-1.9225,-1.8618,-1.8153,-1.7645,-1.7346,-1.7134,-1.7087,-1.7026,-1.7121,-1.7274,-1.7182,-1.7411,-1.7094,-1.7094,-1.7093,-1.7093,-1.7093,-2.2925,-2.2685,-2.2244,-2.1832,-2.1509,-2.1161,-2.0884,-2.0548,-2.0167,-1.9653,-1.9444,-1.898,-1.852,-1.782,-1.7523,-1.7143,-1.7102,-1.7016,-1.6993,-1.6976,-1.6991,-1.7343,-1.7049,-1.7048,-1.7047,-1.7047,-1.7046,0,-2.2764,-2.2468,-2.2095,-2.1579,-2.1252,-2.11,-2.067,-2.0402,-2.0003,-1.9601,-1.9222,-1.8694,-1.8242,-1.7794,-1.7314,-1.7096,-1.6986,-1.6982,-1.6989,-1.6922,-1.7058,-1.7157,-1.7078,-1.7078,-1.7078,-1.7078,-1.7079,-1.7079,-2.2643,-2.2226,-2.2003,-2.1418,-2.1116,-2.0671,-2.0437,-2.0109,-1.9786,-1.9216,-1.8845,-1.8561,-1.8134,-1.7622,-1.7195,-1.7073,-1.6905,-1.6927,-1.6778,-1.6912,-1.6914,-1.6915,-1.7005,-1.6896,-1.6896,-1.6671,-1.6669,-1.6668]}]]